ARABSAT-5C

Last updated on Mon Sep 07 2026 00:02:58 GMT+0000 (Coordinated Universal Time)

1 37810U 11049B 26249.31059432 .00000108 00000+0 00000+0 0 9991 2 37810 0.0544 1.3494 0003868 174.3593 301.5065 1.00271046 54855
UTC large
Height (km)
Speed (km/s)
/
Latitude / Longitude
Inclination (degrees)
Orbital Period (minutes)
Azimuth
Elevation
Range (km)
Doppler Factor

Next 0 passes for location: London (51.5072 / 0.1276)

No passes found over London.
ARABSAT-5C